Regional Weather Roundup
Issued by NWS Charleston, SC

Home | Current Version | Previous Version | Text Only | Print | Product List | Glossary On
Versions: 1 2 3 4 5 6 7 8 9 10 11 12 13 14 15 16 17 18 19 20 21 22 23 24 25 26 27 28 29 30 31 32 33 34 35 36 37 38 39 40 41 42 43 44 45 46 47 48 49 50
000
ASUS42 KCHS 190125
RWRCHS

REGIONAL WEATHER ROUNDUP
NATIONAL WEATHER SERVICE CHARLESTON SC
900 PM EDT FRI APR 18 2014

NOTE: "FAIR" INDICATES FEW OR NO CLOUDS BELOW 12,000 FEET WITH NO
SIGNIFICANT WEATHER AND/OR OBSTRUCTIONS TO VISIBILITY.

NOT ALL STATIONS ARE QUALITY CONTROLLED BY THE NATIONAL
WEATHER SERVICE. USE DATA WITH CAUTION...ESPECIALLY
DEWPOINT OBSERVATIONS.

SCZ027-030-031-034>040-042>050-190200-
...SOUTH CAROLINA...

CITY           SKY/WX    TMP DP  RH WIND       PRES   REMARKS
N CHARLESTON   RAIN      59  56  89 NE17G31   30.05S FOG
WATERFRONT PRK   N/A     57 N/A N/A MISG        N/A
FORT JOHNSON     N/A     57  57 100 E21G32    30.08F
MOUNT PLEASANT HVY RAIN N/A N/A N/A NE9G21    30.05F VSB 3/4
JOHNS ISLAND   HVY RAIN  57  57 100 NE24G38   30.03F
PINOPOLIS      NOT AVBL
MONCKS CORNER  RAIN      59  57  94 NE15G21   30.08F
SUMMERVILLE    HVY RAIN  55  55 100 NE8G16    30.05S
BEAUFORT MCAS  RAIN      59  57  94 E13G22    30.04R FOG
BEAUFORT ARPT  HVY RAIN  59  59 100 NE15G22   30.02F
HILTON HEAD IS HVY RAIN  61  59  94 N14       30.04R
GEORGETOWN     NOT AVBL
WALTERBORO     HVY RAIN  55 N/A N/A E6        30.07R
ORANGEBURG     HVY RAIN  54  51  90 NE13      30.10F FOG
BARNWELL       RAIN      54  52  94 NE14      30.10F
AIKEN          RAIN      52  52 100 NE15      30.15F
MANNING        CLOUDY    55 N/A N/A NE13G21   30.10F
KINGSTREE      NOT AVBL
COLUMBIA       RAIN      54  51  90 N9        30.14F FOG
SUMTER         HVY RAIN  54  52  94 NE23      30.12F FOG
FLORENCE       RAIN      55  53  93 NE14      30.19F FOG
MYRTLE BEACH   LGT RAIN  55  55 100 NE17      30.16F FOG
N MYRTLE BEACH RAIN      56  54  93 NE17      30.16F FOG

$$

GAZ063-065-086>088-099>101-113>116-118-119-134-136>141-150-190200-
...GEORGIA...

CITY           SKY/WX    TMP DP  RH WIND       PRES   REMARKS
SAVANNAH ARPT  LGT RAIN  58  56  93 NE15      29.97F
HUNTER AAF     LGT RAIN  59  59 100 NE12      29.96F
FORT STEWART   LGT RAIN  57  57 100 NE12      29.94F
STATESBORO     NOT AVBL
SYLVANIA       LGT RAIN  56  53  91 NE16G26   30.01F
CLAXTON        RAIN      55  55 100 NE10G20   29.99R
THOMSON        CLOUDY    50  50 100 NE10G20   30.14F
AUGUSTA-BUSH   RAIN      52  49  89 NE15G23   30.11F FOG
AUGUSTA-DANIEL RAIN      52  50  93 NE16G28   30.09F FOG
SWAINSBORO     LGT RAIN  52  52 100 NE14G20   30.01F
VIDALIA        RAIN      54  54 100 NE15G22   29.99F
ALMA           RAIN      56  53  90 NE9       29.95R FOG
WAYCROSS       NOT AVBL
JESUP          RAIN      55  55 100 NE6       29.97R
BRUNSWICK      CLOUDY    61  59  94 NE8       29.95S
SAINT SIMONS   LGT RAIN  61  60  97 NE6       29.94F

$$

SCZ027-028-034-036>038-045-046-048>050-GAZ119-141-190200-
...LAKE AND SUPPLEMENTAL COASTAL OBSERVATIONS...

STATION/POSITION TIME  TEMP    WIND        PRES    WAVE   SWELL
                       AIR SEA DIR/SP/G            HT/PER HT/PER/DIR
                 (UTC) (F)     (DEG/KT/KT) (MB)    (FT/S) (FT/S/D)
UPR LAKE MARION  NOT AVBL
WINYAH BAY       0100   58      40/ 16     1020.0S
LAKE MURRAY      0000   52      20/  5/  9 1020.7F
ACE BASIN NERRS  0100   58      40/  6     1016.0S
FORT PULASKI     0100   60 59   30/ 17/ 22 1015.7F
SAPELO ISLAND    0000   60      30/ 16     1014.0S

$$

ANZ835-935-AMZ111-154-330-350-352-354-374-450-454-472-190200-
...C-MAN AND BUOY OBSERVATIONS...

STATION/POSITION TIME  TEMP    WIND        PRES    WAVE   SWELL
                       AIR SEA DIR/SP/G            HT/PER HT/PER/DIR
                 (UTC) (F)     (DEG/KT/KT) (MB)    (FT/S) (FT/S/D)
FOLLY BEACH CMAN 0100   59      50/ 32/ 37 1017.3F
BUOY 41004       NOT AVBL
BUOY 41008       0100   65 65   20/  8/ 10 1013.6F   7/ 8   7/ 90/ 8
5E ST. MARYS GA  0100      64                N/A     6/ 7   2/ 90/11
FRYING PAN BUOY  0100   60 65   50/ 23/ 27 1020.1R   9/ 7   3/110/ 9
BUOY 41025       NOT AVBL
CAPE LOOKOUT NC  0100   55      20/ 19/ 23 1022.9F
BUOY 41002       NOT AVBL
BUOY 41010       0100   76 76  140/ 17/ 21 1016.4S   7/11   3/ 40/11
BUOY 41012       NOT AVBL
ST AUGUSTINE FL  0100   66     200/  4/  5 1014.6S
CAPERS NEARSHORE 0000           60/ 29/ 35   N/A
FRIPP NEARSHORE  0000   59      50/ 21/ 31   N/A


$$



USA.gov is the U.S. government's official web portal to all federal, state and local government web resources and services.